Location: Newark
(47.9264°N, 3.6000°E)
Time: 21:16:48
(UTC+00:00)

N. Korean satellite - Pass Details

Date: 14 April 2020
Orbit: 455 x 504 km, 97.2° (Epoch: 06 June)

Event Time Altitude Azimuth Distance (km) Brightness Sun altitude
Rises 04:18:43 0° 35° (NE) 2,485 11.3 -7.0°
Reaches altitude 10° 04:22:36 10° 80° (E) 1,604 10.8 -6.4°
Maximum altitude 04:23:07 10° 89° (E) 1,588 10.5 -6.3°
Drops below altitude 10° 04:23:37 10° 97° (E) 1,603 10.3 -6.2°
Sets 04:27:29 0° 142° (SE) 2,476 10.4 -5.6°
